Dewpoint
54 54 54 54 54 54 54 55 55 55 55 56 56 56 57 57 57 57 57 58 58 58 58 59 60 60 60 61 61 60 60 58 45 39 33 49 58 66 67 68 67 66 62 40 30 27 20 20 22 23 28 29 34 36 38 40 35 36 31 16 14 11 8 13 13 18 22 20 20 22 22 20 18 21 22 22 22 21 20 20 22 27 30 31 35 36 36 37
54 54 54 53 54 55 55 55 55 56 55 55 56 56 57 57 57 57 58 58 58 58 59 59 60 60 60 61 60 60 58 56 44 34 40 60 66 67 67 67 67 66 58 36 26 21 17 18 20 21 21 23 35 28 36 36 39 30 16 11 15 14 15 13 17 19 18 21 21 22 22 20 20 20 21 17 17 20 17 20 21 26 31 32 33 34 36 37
54 54 54 54 54 55 55 54 55 56 56 55 56 56 56 56 57 58 58 58 58 58 59 59 60 60 60 61 60 59 57 53 43 31 44 65 67 67 66 66 64 62 44 31 23 23 21 20 22 19 20 17 23 28 28 34 31 23 25 18 20 19 13 16 18 19 23 22 20 22 22 20 22 21 22 19 19 18 17 18 19 20 24 31 32 35 36 37
54 54 54 54 54 54 55 55 55 56 56 56 56 57 56 57 57 58 58 58 58 59 59 59 60 60 60 60 60 59 60 52 28 31 48 64 66 68 65 63 62 57 40 28 27 26 23 23 22 21 22 17 24 22 26 32 32 32 21 18 20 15 17 17 19 22 23 24 22 20 23 20 23 22 21 20 18 17 21 23 22 25 29 31 32 35 37 37
54 55 54 54 54 54 54 54 55 56 56 56 56 57 56 57 57 58 58 58 58 59 59 59 60 60 60 60 60 58 54 25 29 35 57 65 66 65 62 59 57 42 36 28 28 26 25 23 21 21 22 18 21 18 19 25 26 24 17 19 20 18 19 21 23 25 25 26 22 22 20 22 23 21 21 20 19 19 25 29 31 32 32 32 33 34 37 38
54 55 54 54 54 54 53 54 55 55 56 56 56 56 57 57 58 58 58 58 59 58 59 59 59 60 60 60 59 59 48 12 27 43 63 64 65 60 60 55 57 45 30 27 27 26 25 22 21 23 18 16 17 14 21 24 26 22 19 22 21 24 22 25 25 27 25 24 22 21 22 21 21 20 21 20 21 30 32 32 32 33 33 33 34 35 36 38
54 53 54 54 54 54 54 54 54 55 56 56 56 57 57 58 58 58 58 58 59 59 59 59 59 60 60 59 57 47 32 26 29 57 62 63 62 60 56 57 57 37 29 28 26 27 25 22 20 20 19 19 16 15 21 21 28 18 16 22 24 26 22 26 24 28 25 23 22 22 23 21 21 20 20 20 29 32 33 33 33 33 33 34 34 35 36 37
54 54 53 53 53 53 53 54 54 55 56 56 56 57 57 58 58 58 58 58 58 59 59 59 59 60 59 57 50 40 35 29 41 51 59 60 55 50 52 42 38 37 31 28 27 25 23 22 19 20 18 18 16 16 22 22 22 21 19 22 26 25 23 24 24 25 25 24 24 23 22 21 21 20 20 20 28 32 32 33 33 33 33 33 33 34 35 36
54 54 54 54 54 54 53 54 54 55 56 56 56 56 57 57 58 58 58 58 59 58 58 59 59 58 58 56 41 34 27 47 52 56 56 53 47 42 47 36 35 34 30 29 28 29 27 24 21 20 19 17 17 17 19 17 17 20 22 22 22 22 22 22 22 22 22 22 22 22 22 21 21 21 20 24 30 32 32 32 32 32 32 33 34 34 35 36
56 54 55 55 54 54 54 54 54 54 55 56 57 57 57 57 58 58 58 58 59 59 58 59 59 58 56 49 40 30 45 45 53 54 54 45 45 41 39 43 32 32 31 30 29 28 27 27 26 24 24 20 19 20 21 18 20 22 22 22 21 22 22 23 22 22 22 23 22 21 21 21 20 19 17 25 31 32 31 31 31 32 32 32 33 35 35 36
56 56 56 56 55 55 54 54 53 53 55 56 56 57 57 57 58 58 58 58 59 58 58 58 58 58 53 38 34 30 51 54 53 50 47 44 39 37 37 38 37 34 33 33 29 27 28 26 30 25 26 20 20 20 20 20 22 22 22 22 22 22 22 23 23 23 23 22 22 22 21 20 20 21 19 22 31 31 30 30 31 32 32 33 34 34 37 35
55 56 57 57 56 56 54 55 54 54 55 56 56 56 57 57 58 58 58 58 59 58 58 58 58 54 45 38 35 38 42 53 53 47 44 43 45 46 45 40 37 41 34 31 32 36 37 33 31 23 21 23 19 21 21 23 22 23 23 20 21 22 22 22 22 22 23 20 20 20 19 19 19 18 27 27 28 31 30 30 31 31 32 34 34 34 35 35
56 56 57 59 57 57 56 55 54 54 54 56 56 57 57 57 58 58 58 58 58 58 58 58 57 57 48 35 36 41 45 51 48 46 45 46 44 41 43 45 44 37 39 36 33 39 39 34 30 24 26 24 23 21 24 24 23 23 22 21 21 20 20 22 21 21 21 20 20 20 19 19 18 21 24 28 30 29 29 29 30 31 32 32 33 34 35 35
57 57 58 59 58 57 56 55 54 54 54 55 56 57 57 57 58 58 58 58 58 58 57 59 58 51 43 32 41 46 50 46 44 42 43 44 41 45 41 42 41 39 43 39 41 40 38 32 32 27 29 25 22 28 23 23 23 21 22 23 22 22 20 22 21 21 21 20 21 21 22 19 20 25 28 26 30 28 28 29 30 30 31 33 35 34 34 35
57 57 58 59 58 57 57 56 54 54 55 55 56 57 58 58 58 58 58 58 58 58 58 58 59 52 35 30 44 52 58 49 43 43 43 40 40 41 39 38 38 38 37 39 39 38 34 34 31 26 24 26 26 23 23 22 23 22 22 22 25 23 22 22 22 22 21 19 20 20 23 20 20 26 29 30 27 28 28 29 29 30 31 31 32 32 33 34
57 58 59 59 58 57 56 55 54 54 55 56 57 58 58 58 57 57 57 57 58 57 59 58 48 44 37 31 44 55 51 40 40 48 45 44 45 39 40 38 37 36 34 32 33 32 32 33 28 30 25 25 24 24 24 25 25 23 22 26 23 26 24 22 22 24 23 20 21 20 20 19 21 27 29 30 27 26 27 29 30 30 30 30 31 32 33 34
58 59 59 58 58 57 56 55 54 54 55 56 57 58 59 57 57 57 58 57 57 56 57 44 40 40 29 39 40 38 37 45 46 48 44 44 44 40 37 38 34 33 34 33 35 34 31 29 31 32 28 25 25 27 25 26 25 25 26 23 26 22 23 22 22 23 27 21 20 21 21 22 24 27 28 30 28 27 27 28 29 30 30 31 32 31 32 32
59 59 59 58 58 57 56 56 54 54 55 56 57 58 57 57 58 57 57 57 57 54 49 48 46 42 34 37 31 32 42 41 48 46 46 41 41 36 37 33 34 33 33 31 34 30 31 29 29 27 27 27 25 25 26 23 26 25 25 27 24 22 22 21 22 22 22 22 22 22 21 22 23 27 28 28 30 28 28 28 29 29 30 31 30 31 31 32
59 59 59 58 58 57 56 56 55 55 56 57 58 58 57 58 57 56 50 50 46 41 35 39 35 28 26 36 36 39 45 44 45 45 41 39 41 38 37 35 36 31 32 30 30 30 31 33 33 29 27 26 24 24 25 25 22 22 24 24 25 25 24 22 22 24 23 23 23 24 24 24 24 26 28 29 29 28 28 29 29 29 30 30 31 32 32 33
59 59 59 58 58 57 56 56 55 56 57 57 57 55 55 51 52 46 49 49 41 33 34 41 35 32 37 36 39 42 44 45 41 43 42 40 38 36 35 34 39 35 31 32 33 30 34 31 29 28 27 26 26 25 24 24 24 24 27 27 24 25 24 24 24 24 24 24 24 25 25 25 26 26 27 28 29 30 29 29 30 30 30 30 30 32 32 32
58 59 59 58 58 57 56 56 55 56 57 57 56 53 38 34 36 31 45 44 44 41 35 38 37 33 32 42 43 39 36 36 38 42 42 41 39 35 33 34 34 33 32 32 35 30 31 30 30 29 27 26 26 26 25 24 24 24 25 26 25 28 24 25 25 25 25 25 26 27 27 27 27 27 28 29 29 28 29 29 30 30 30 31 32 33 33 32
58 59 59 58 57 57 56 55 55 56 57 57 56 48 47 49 50 47 45 33 44 45 44 40 41 39 40 38 41 41 41 35 37 42 44 40 36 33 33 32 32 31 32 33 31 31 30 29 29 29 29 26 25 26 25 24 25 26 25 26 27 26 28 26 25 25 25 26 26 27 27 26 26 27 29 29 28 28 29 29 29 29 30 30 31 32 32 33
58 58 58 58 57 57 55 55 55 56 56 55 54 53 50 52 51 51 50 44 41 44 45 44 41 41 38 40 40 40 36 35 34 41 40 41 35 34 33 31 31 30 32 30 31 32 30 30 29 29 28 27 25 25 25 25 27 26 28 28 26 30 29 28 28 27 27 26 27 27 27 27 27 29 29 30 29 31 32 32 33 32 30 30 30 31 32 32
58 58 58 57 57 56 55 55 56 56 54 54 52 52 53 51 51 49 48 38 36 42 45 45 43 42 40 40 41 37 36 36 36 37 41 38 34 35 33 31 31 30 30 29 29 30 29 30 30 28 30 27 26 26 25 25 25 30 30 29 28 30 29 30 28 27 26 27 29 27 29 29 29 28 29 30 30 30 31 31 31 32 33 32 33 33 32 31
58 58 58 57 56 56 55 56 54 53 53 54 53 53 55 56 53 52 46 38 39 41 50 49 49 46 43 46 42 38 37 37 38 38 40 37 34 33 32 32 31 30 30 30 28 30 30 30 34 28 31 29 29 26 28 31 26 28 31 29 29 29 29 31 31 28 29 29 29 29 27 27 28 28 29 29 29 29 29 29 29 29 31 30 30 31 32 33
58 57 57 57 56 55 57 52 51 52 53 52 53 55 55 56 57 52 45 38 35 41 44 41 48 42 48 42 43 40 39 36 40 40 41 38 37 35 32 31 31 31 30 31 29 31 30 32 35 33 32 33 31 30 31 31 29 30 30 32 30 30 32 33 32 31 28 27 29 29 27 25 26 27 28 29 28 28 28 29 28 28 28 29 29 30 30 31
58 57 57 56 56 56 52 48 52 53 50 51 53 55 56 57 55 52 36 35 33 42 39 46 45 42 48 42 42 41 36 38 41 41 40 42 35 39 31 31 31 31 31 31 33 31 33 31 35 36 33 35 33 29 33 31 31 30 37 37 33 32 32 33 32 32 30 32 33 28 28 25 24 22 28 28 28 27 28 28 29 28 28 28 28 29 30 30
58 58 56 56 56 56 51 51 53 52 47 54 55 56 57 57 53 50 39 30 28 44 41 41 41 43 44 42 45 39 37 39 37 38 37 39 37 34 34 32 31 32 31 33 30 37 32 34 35 35 34 33 32 33 35 34 32 34 36 36 34 31 32 33 32 30 30 29 27 26 31 23 22 26 27 28 27 27 27 27 28 28 28 27 28 29 30 29
58 57 56 56 56 56 56 53 52 51 54 53 55 56 56 53 50 42 42 29 42 36 44 38 43 41 41 42 40 37 37 35 34 36 40 37 38 35 32 34 33 32 31 32 32 38 34 36 35 35 34 31 35 33 35 36 32 37 36 35 34 35 34 33 30 30 29 27 26 26 28 22 21 24 26 28 27 26 27 27 27 28 28 28 28 28 29 28
58 58 57 56 56 56 54 56 53 56 53 53 54 55 53 48 46 39 33 29 41 34 39 38 38 38 40 39 39 36 35 35 36 37 36 35 35 37 35 36 33 33 34 31 35 34 32 33 37 35 34 36 32 32 36 37 35 36 35 34 33 33 32 31 31 29 27 25 25 27 29 25 22 23 21 28 26 23 25 27 27 28 29 28 28 28 29 27
58 58 57 56 54 53 53 51 52 56 54 54 54 53 49 48 42 36 30 33 36 39 37 36 36 41 38 38 37 37 38 35 35 35 34 35 33 34 34 34 35 34 35 35 34 37 33 34 36 36 34 34 34 35 34 35 37 36 33 32 31 29 28 28 27 29 25 25 27 26 27 28 22 20 25 24 26 25 27 26 26 27 27 27 28 27 27 27
57 57 57 57 56 55 50 49 53 55 53 53 55 50 46 39 44 35 32 33 30 35 35 35 39 39 38 39 40 36 35 34 35 35 34 34 35 33 33 34 35 32 32 32 32 37 35 34 35 37 36 34 36 34 32 34 34 36 32 31 29 29 27 26 27 25 25 26 23 24 30 27 25 21 20 25 24 25 26 26 27 27 27 28 28 27 27 27
57 57 57 57 55 55 53 57 55 54 53 53 51 48 45 39 31 38 36 33 30 37 35 39 37 38 39 39 39 37 39 35 35 35 37 37 35 36 36 36 37 35 31 34 33 33 33 37 35 37 34 35 36 32 29 30 30 31 31 30 29 27 25 24 26 26 25 25 22 21 28 24 23 24 23 21 25 26 29 30 29 28 27 27 28 27 26 27
57 57 56 56 56 56 55 55 55 53 52 54 51 47 43 34 33 39 37 36 36 36 37 37 37 39 40 37 39 37 36 38 36 35 36 36 36 35 35 36 36 36 37 34 31 32 30 32 34 35 32 35 35 34 32 32 30 30 34 32 30 29 27 24 24 23 23 23 19 24 23 22 22 21 27 26 26 28 28 29 31 29 29 29 27 27 27 27
57 57 57 57 56 56 57 55 55 53 53 52 47 42 33 32 37 39 38 39 36 33 35 38 38 39 39 39 36 37 36 36 36 36 36 36 34 35 35 35 37 37 38 33 35 33 33 31 35 37 38 34 35 36 35 34 32 31 33 34 30 30 30 24 24 23 23 20 20 22 22 21 21 27 28 27 26 27 28 29 30 28 28 29 27 27 27 26
56 56 57 55 55 56 57 56 55 54 53 49 43 37 34 36 35 44 40 41 36 36 34 37 39 36 35 37 35 36 39 36 36 36 36 36 36 35 37 37 36 36 35 32 35 31 34 31 35 36 35 32 33 37 35 35 29 31 32 29 31 31 28 23 26 27 25 21 20 24 20 23 21 23 25 26 25 26 27 28 28 28 28 29 28 28 27 27
54 55 52 54 55 57 57 56 54 53 52 47 41 35 39 41 44 45 45 41 38 35 36 32 35 33 34 34 35 34 36 36 37 36 34 37 35 36 36 37 38 37 36 35 33 36 31 32 32 35 33 33 33 35 36 36 35 31 28 30 34 33 32 26 23 23 21 19 21 23 22 19 21 20 26 26 25 25 26 27 27 29 29 28 29 29 28 28
54 53 53 53 55 57 57 56 54 52 50 45 39 39 44 40 46 42 44 39 37 37 38 34 35 36 34 34 34 33 36 34 34 35 33 35 32 38 37 37 38 37 36 39 33 35 35 29 31 34 34 34 33 34 32 35 35 31 30 37 29 27 26 26 24 21 21 20 21 21 21 21 21 24 22 24 24 24 25 27 27 28 28 29 29 28 28 28
54 52 49 53 57 57 56 55 54 50 46 41 39 39 42 43 46 45 43 40 39 38 38 36 38 37 36 34 34 34 33 31 34 34 32 34 31 36 36 37 38 37 38 38 34 34 36 31 30 32 32 32 32 32 29 29 33 34 33 31 34 27 28 26 25 26 22 21 22 23 22 21 27 23 21 21 23 25 25 27 27 28 28 28 29 29 28 28
51 47 47 55 57 57 56 54 50 48 44 37 39 39 46 41 44 46 46 41 39 39 37 37 40 37 37 35 36 32 34 36 34 34 34 35 33 36 35 37 37 38 40 40 36 36 30 32 28 30 33 31 28 30 30 30 28 27 27 26 29 29 29 27 27 24 22 21 21 21 20 23 25 22 22 22 21 24 26 27 29 29 29 29 29 30 29 28
52 48 48 52 56 56 55 51 46 42 41 43 42 41 44 42 45 46 46 46 46 45 42 40 41 36 39 35 32 36 35 34 35 34 34 33 32 31 35 37 39 42 42 39 36 35 31 29 29 28 28 28 29 35 34 36 31 29 27 27 27 27 25 24 23 27 25 22 21 20 20 25 28 24 21 22 22 25 28 28 29 29 29 29 30 30 30 29
48 42 47 50 52 55 50 42 43 45 43 41 40 42 42 47 44 44 45 46 45 46 45 44 44 42 42 38 42 36 36 35 35 35 35 33 35 33 37 36 40 42 38 33 34 40 36 35 29 28 28 29 32 33 34 33 33 34 29 28 29 27 27 24 22 24 25 24 26 23 20 21 28 28 27 26 26 24 28 29 30 30 30 30 30 30 30 29
47 47 46 50 50 53 48 42 43 42 41 43 47 45 47 45 43 45 43 44 42 45 44 43 42 41 43 41 41 38 36 35 37 35 37 35 35 38 37 35 38 39 36 39 37 35 34 31 28 29 31 32 30 32 34 33 33 31 31 32 30 26 27 26 25 27 24 24 22 22 21 24 26 29 28 27 29 29 29 30 30 30 30 30 31 31 30 30
48 44 46 50 51 51 45 37 37 40 41 43 44 43 45 45 43 43 42 43 42 42 42 42 43 41 41 44 41 37 39 32 37 36 34 37 34 35 36 37 36 36 36 34 34 38 31 31 31 29 28 28 28 29 29 32 31 28 27 30 32 32 33 30 28 26 24 26 25 22 21 24 24 30 29 27 26 26 25 27 30 31 31 31 30 31 31 30
45 46 45 47 49 48 42 44 41 40 41 41 41 41 41 41 45 44 43 43 44 42 42 41 41 45 43 44 41 40 39 38 34 37 36 39 38 36 37 36 36 35 39 39 38 41 33 32 30 28 26 25 24 24 25 27 27 28 29 30 31 32 31 27 25 25 23 26 28 23 22 26 24 26 26 27 26 25 26 27 27 31 31 30 31 31 31 30
43 38 42 43 46 44 44 43 45 43 41 41 39 40 41 40 41 42 45 43 43 43 42 42 42 43 40 39 39 39 39 41 38 35 36 37 38 36 35 36 36 38 38 38 38 37 32 33 32 32 30 27 27 28 29 31 27 27 27 29 30 32 31 30 27 25 23 26 25 26 25 25 23 24 25 25 26 25 24 26 27 28 30 31 31 32 31 30
44 42 38 35 43 43 41 44 42 44 40 42 36 39 37 39 40 39 43 41 43 42 41 41 40 39 39 39 38 39 40 39 38 35 35 36 35 36 35 36 36 37 37 37 37 36 32 31 33 32 32 31 28 29 30 32 28 28 28 28 30 30 30 29 26 25 29 25 23 27 27 26 25 24 25 27 27 26 25 26 26 27 29 31 31 31 32 29
40 43 45 46 39 35 36 37 41 42 44 43 38 40 38 38 38 36 40 42 43 43 39 39 39 41 41 39 38 35 36 36 35 34 35 35 34 35 35 36 35 37 37 36 38 35 33 32 33 33 32 32 30 31 31 30 31 30 29 29 29 30 29 28 28 28 31 26 25 28 29 28 26 25 26 27 27 25 25 26 26 27 29 30 30 30 30 29
43 41 43 44 40 43 40 39 40 41 41 42 39 39 37 38 37 38 39 38 40 39 41 35 37 40 40 41 39 35 34 33 33 35 34 34 34 33 32 34 36 37 37 36 36 35 34 32 33 34 32 32 30 30 31 30 28 28 30 30 30 30 29 28 28 29 30 29 30 30 32 30 28 27 27 27 28 27 26 27 28 28 30 30 30 29 29 29
37 40 38 42 41 42 42 42 41 41 38 41 36 36 37 37 37 39 40 38 34 36 42 38 37 38 40 40 39 35 36 37 35 33 35 34 33 33 33 36 33 34 37 35 36 36 35 31 34 33 32 32 31 30 31 31 30 30 30 30 30 30 29 30 29 30 31 30 31 31 30 30 32 29 29 31 30 29 28 26 26 28 29 29 29 29 29 29
41 39 43 40 37 38 40 41 40 40 37 38 37 37 38 38 38 40 38 40 37 35 39 37 38 37 37 38 38 38 40 38 36 36 36 35 33 36 34 34 38 33 34 33 34 34 34 32 32 33 31 30 29 30 30 30 30 30 30 31 30 29 28 28 29 30 30 30 31 30 29 30 32 37 31 30 29 28 27 27 26 29 29 29 29 29 30 30
41 41 40 43 36 40 37 40 41 39 35 38 38 38 38 38 39 40 35 38 39 40 39 39 39 37 35 36 36 38 40 38 38 38 39 40 40 39 40 39 38 35 33 33 34 33 33 32 30 31 29 29 26 30 29 29 29 27 28 30 31 30 30 30 30 31 31 31 30 29 29 36 33 30 28 28 28 28 28 27 29 29 30 30 29 29 30 31